Home > Weather > Pratapgarh > Past weeks

Flag for India Weather for the Past 2 Weeks in Pratapgarh, Uttar Pradesh, India

Now
95 °F

Haze.


Feels Like: 96 °F
Forecast: 80 / 103 °F
Wind: 5 mph from Northeast

Location: Lucknow / Amausi

Current Time: May 5, 2016 at 8:25:51 PM

Latest Report: May 5, 2016 at 7:00 PM


Visibility: 3 mi

Pressure: 29.65 "Hg

Humidity: 34%

Dew Point: 63 °F

Location of PratapgarhLocation

Historic Weather in Pratapgarh — Graph

°F

Pratapgarh Temperature Yesterday

Maximum temperature yesterday: 122 °F (at 5:00 AM)
Minimum temperature yesterday: 81 °F (at 3:00 AM)
Average temperature yesterday: 93 °F

High & Low Weather Summary for the Past Weeks

 TemperatureHumidityPressure
High122 °F (May 4, 5:00 AM)70% (May 3, 6:00 AM)29.86 "Hg (May 3, 6:00 AM)
Low72 °F (Apr 25, 6:00 AM)6% (May 4, 5:00 AM)29.45 "Hg (Apr 23, 4:00 AM)
Average94 °F25%29.63 "Hg
* Reported Apr 20 6:30 PM — May 5 6:30 PM, Pratapgarh, Weather by CustomWeather, © 2016

Note: Actual official high and low records may vary slightly from our data, if they occured in-between our weather recording intervals... More about our weather records

Advertising

Pratapgarh Weather History for the Previous 24 Hours

Scroll right to see more
 ConditionsComfort  
Time TempWeatherWind HumidityBarometerVisibility
6:30 PM
Thu, May 5
97 °FHaze.6 mph32%29.65 "Hg3 mi
6:00 PM97 °FHaze.5 mph34%29.65 "Hg3 mi
5:30 PM99 °FHaze.5 mph33%29.65 "Hg3 mi
5:00 PM99 °FHaze.3 mph33%29.65 "Hg3 mi
4:30 PM100 °FHaze.3 mph31%29.68 "Hg3 mi
3:30 PM100 °FHaze.5 mph31%29.68 "Hg3 mi
3:00 PM100 °FHaze.7 mph29%29.71 "Hg3 mi
2:30 PM99 °FHaze.12 mph33%29.71 "Hg3 mi
1:30 PM99 °FScattered clouds.14 mph33%29.74 "Hg3 mi
1:00 PM97 °FScattered clouds.12 mph34%29.77 "Hg3 mi
12:30 PM97 °FScattered clouds.14 mph37%29.80 "Hg3 mi
12:00 PM95 °FScattered clouds.13 mph36%29.80 "Hg3 mi
11:30 AM93 °FScattered clouds.12 mph36%29.83 "Hg3 mi
11:00 AM93 °FScattered clouds.12 mph39%29.83 "Hg3 mi
10:30 AM90 °FScattered clouds.15 mph41%29.83 "Hg2 mi
10:00 AM88 °FScattered clouds.13 mph49%29.83 "Hg2 mi
9:30 AM86 °FScattered clouds.13 mph52%29.86 "Hg2 mi
8:30 AM82 °FScattered clouds.13 mph70%29.86 "Hg2 mi
8:00 AM81 °FScattered clouds.14 mph62%29.86 "Hg2 mi
7:30 AM81 °FBroken clouds.14 mph58%29.86 "Hg2 mi
7:00 AM79 °FLight rain. Broken clouds.14 mph61%29.83 "Hg2 mi
6:30 AM79 °FScattered clouds.14 mph58%29.83 "Hg2 mi
6:00 AM77 °FScattered clouds.9 mph61%29.74 "Hg2 mi
5:30 AM79 °FPassing clouds.9 mph58%29.71 "Hg2 mi
5:00 AM79 °FPassing clouds.9 mph61%29.71 "Hg2 mi
4:00 AM81 °FPassing clouds.9 mph58%29.68 "Hg2 mi
3:00 AM79 °FPassing clouds.9 mph58%29.71 "Hg2 mi
2:00 AM82 °FPartly cloudy.16 mph55%29.71 "Hg2 mi
1:00 AM84 °FPassing clouds.7 mph48%29.71 "Hg2 mi
12:00 AM84 °FPassing clouds.7 mph51%29.74 "Hg2 mi
11:00 PM
Wed, May 4
86 °FPassing clouds.14 mph52%29.71 "Hg2 mi
10:00 PM88 °FHaze.7 mph49%29.68 "Hg2 mi
9:00 PM90 °FHaze.9 mph49%29.65 "Hg2 mi
8:00 PM93 °FHaze.8 mph41%29.62 "Hg2 mi
Weather by CustomWeather, © 2016

See weather overviewHow to use our weather pages